Location: Sauerland
(51.1981°N, 7.8053°E)
Time: 18:39:05
(UTC+02:00)

ISS - Visible Passes

Search period start: 21 July 2017 00:00
Search period end: 31 July 2017 00:00
Orbit: 400 x 408 km, 51.6° (Epoch: 21 July)

Date Brightness Start Highest point End Pass type
(mag) Time Alt. Az. Time Alt. Az. Time Alt. Az.
21 Jul -1.5 00:29:21 14° E 00:29:21 14° E 00:29:56 10° E visible
21 Jul -4.0 02:01:57 34° W 02:03:15 89° SSE 02:06:32 10° E visible
21 Jul -3.9 03:36:30 10° W 03:39:47 89° SSE 03:43:03 10° E visible
22 Jul -4.0 01:10:45 69° SSW 01:10:58 73° SSE 01:14:13 10° E visible
22 Jul -3.8 02:44:12 10° W 02:47:28 82° N 02:50:45 10° E visible
22 Jul -3.6 04:20:43 10° W 04:23:53 48° SSW 04:27:02 10° SE visible
22 Jul -2.1 22:40:54 10° S 22:42:45 14° SE 22:44:36 10° ESE visible
23 Jul -3.8 00:15:31 10° WSW 00:18:42 54° SSE 00:21:55 10° E visible
23 Jul -3.8 01:51:52 10° W 01:55:09 81° N 01:58:25 10° E visible
23 Jul -4.0 03:28:23 10° W 03:31:38 66° SSW 03:34:52 10° ESE visible
23 Jul -3.4 23:23:26 10° SW 23:26:29 37° SSE 23:29:32 10° E visible
24 Jul -3.9 00:59:33 10° W 01:02:48 87° N 01:06:05 10° E visible
24 Jul -4.0 02:36:04 10° W 02:39:20 84° SSW 02:42:36 10° ESE visible
24 Jul -3.0 04:12:42 10° W 04:15:34 28° SSW 04:18:26 10° SSE visible
24 Jul -2.8 22:31:33 10° SSW 22:34:18 25° SSE 22:37:03 10° E visible
25 Jul -4.0 00:07:14 10° WSW 00:10:29 80° SSE 00:13:45 10° E visible
25 Jul -3.9 01:43:44 10° W 01:47:00 84° N 01:50:16 10° E visible
25 Jul -3.5 03:20:16 10° W 03:23:22 42° SSW 03:26:28 10° SE visible
25 Jul -1.7 04:58:47 10° SW 04:59:11 10° SW 04:59:35 10° SW visible
25 Jul -3.9 23:14:58 10° WSW 23:18:11 61° SSE 23:21:24 10° E visible
26 Jul -3.8 00:51:23 10° W 00:54:39 80° N 00:56:43 21° E visible
26 Jul -2.2 02:27:53 10° W 02:29:15 23° W 02:29:15 23° W visible
26 Jul -3.5 22:22:47 10° SW 22:25:53 43° SSE 22:29:01 10° E visible
26 Jul -3.9 23:59:00 10° W 00:02:16 84° N 00:05:17 12° E visible
27 Jul -3.2 01:35:31 10° W 01:37:53 44° W 01:37:53 44° W visible
27 Jul -3.9 23:06:38 10° WSW 23:09:53 85° S 23:13:10 10° E visible
28 Jul -3.9 00:43:08 10° W 00:46:25 87° N 00:46:53 63° E visible
28 Jul -3.9 22:14:18 10° WSW 22:17:32 67° SSE 22:20:47 10° E visible
28 Jul -3.8 23:50:45 10° W 23:54:01 81° N 23:56:00 22° E visible
29 Jul -2.0 01:27:16 10° W 01:28:37 22° W 01:28:37 22° W visible
29 Jul -3.8 22:58:20 10° W 23:01:36 82° N 23:04:52 10° E visible
30 Jul -3.8 00:34:51 10° W 00:37:47 64° WSW 00:37:47 64° WSW visible
30 Jul -3.8 22:05:55 10° W 22:09:12 90° SE 22:12:28 10° E visible
30 Jul -4.0 23:42:27 10° W 23:45:43 89° S 23:46:59 34° ESE visible
